Weather History for KUIL - April, 2013

Change the Weather History Date:

Friday, April 12, 2013

  Actual Average Record
Temperature  
Mean Temperature 42 °F 46 °F  
Max Temperature 48 °F 54 °F 76 °F (1980)
Min Temperature 35 °F 38 °F 29 °F (1971)
Degree Days  
Heating Degree Days 23 19  
Month to date heating degree days 192 231  
Since 1 July heating degree days 4468 4724  
Cooling Degree Days 0 0  
Month to date cooling degree days 0 0  
Year to date cooling degree days 0 0  
Moisture  
Dew Point 37 °F    
Average Humidity 78    
Maximum Humidity 89    
Minimum Humidity 67    
Precipitation  
Precipitation 0.91 in 0.27 in 2.13 in (1982)
Month to date precipitation 6.22 3.46  
Year to date precipitation 44.32 39.25  
Sea Level Pressure  
Sea Level Pressure 29.88 in    
Wind  
Wind Speed 6 mph (South)    
Max Wind Speed 24 mph    
Max Gust Speed 33 mph    
Visibility 4 miles    
Events Fog , Rain    
T = Trace of Precipitation, MM = Missing Value Source: NWS Daily Summary

Daily Weather History Graph

Daily Weather History Graph

Search for Another Location

Airport or City:

Trip Planner

Search our weather history database for the weather conditions in past years. The results will help you decide how hot, cold, wet, or windy it might be!

Date:

Astronomy

Apr. 12, 2013 Rise Set
Actual Time 6:33 AM PDT 8:04 PM PDT
Civil Twilight 6:01 AM PDT 8:37 PM PDT
Nautical Twilight 5:22 AM PDT 9:16 PM PDT
Astronomical Twilight 4:40 AM PDT 9:59 PM PDT
Moon 7:37 AM PDT (4/12) 10:52 PM PDT (4/12)
Length of Visible Light 14h 35m
Length of Day
13h 30m
Waxing Crescent, 6% of the Moon is Illuminated
Apr 12
Waxing Crescent
Apr 18
First Quarter
Apr 25
Full
May 2
Last Quarter
May 9
New

Hourly Weather History & Observations

Time (PDT) Temp. Windchill Dew Point Humidity Pressure Visibility Wind Dir Wind Speed Gust Speed Precip Events Conditions
12:53 AM 36.0 °F - 32.0 °F 86% 30.20 in 8.0 mi Calm Calm - N/A   Scattered Clouds
1:53 AM 35.1 °F - 30.9 °F 85% 30.18 in 8.0 mi Calm Calm - N/A   Scattered Clouds
2:53 AM 36.0 °F - 32.0 °F 86% 30.16 in 8.0 mi Calm Calm - N/A   Scattered Clouds
3:53 AM 36.0 °F - 32.0 °F 86% 30.13 in 8.0 mi Calm Calm - N/A   Mostly Cloudy
4:53 AM 36.0 °F - 30.9 °F 82% 30.10 in 8.0 mi Calm Calm - N/A   Partly Cloudy
5:53 AM 35.1 °F - 32.0 °F 89% 30.08 in 8.0 mi Calm Calm - N/A   Mostly Cloudy
6:53 AM 37.0 °F - 33.1 °F 86% 30.06 in 7.0 mi Calm Calm - N/A   Overcast
7:53 AM 37.9 °F - 34.0 °F 86% 30.04 in 7.0 mi Calm Calm - N/A   Overcast
8:53 AM 41.0 °F - 36.0 °F 82% 30.01 in 7.0 mi Calm Calm - N/A   Overcast
9:53 AM 42.1 °F 40.2 °F 37.0 °F 82% 29.98 in 4.0 mi SE 3.5 mph - 0.01 in Rain Light Rain
10:12 AM 42.8 °F 41.1 °F 37.4 °F 81% 29.97 in 3.0 mi SSE 3.5 mph - 0.01 in Rain Light Rain
10:36 AM 42.8 °F 39.3 °F 37.4 °F 81% 29.96 in 2.5 mi Variable 5.8 mph - 0.04 in Rain Rain
10:53 AM 43.0 °F 40.3 °F 37.9 °F 82% 29.96 in 2.0 mi SSE 4.6 mph - 0.06 in Rain Light Rain
11:38 AM 42.8 °F 38.0 °F 37.4 °F 81% 29.95 in 3.0 mi SSE 8.1 mph - 0.08 in Rain Light Rain
11:53 AM 42.1 °F 36.6 °F 37.9 °F 85% 29.95 in 2.5 mi SSE 9.2 mph - 0.10 in Rain Rain
12:36 PM 42.8 °F 37.0 °F 37.4 °F 81% 29.92 in 2.5 mi SSE 10.4 mph - 0.08 in Rain Light Rain
12:53 PM 42.1 °F 36.6 °F 37.0 °F 82% 29.92 in 3.0 mi SSE 9.2 mph 18.4 mph 0.10 in Rain Light Rain
1:05 PM 42.8 °F 38.6 °F 37.4 °F 81% 29.91 in 2.5 mi SSE 6.9 mph - 0.02 in Rain Light Rain
1:53 PM 43.0 °F 37.7 °F 39.0 °F 86% 29.88 in 2.0 mi SSE 9.2 mph 17.3 mph 0.08 in Rain Light Rain
2:16 PM 42.8 °F 37.0 °F 39.2 °F 87% 29.87 in 2.5 mi SSE 10.4 mph 16.1 mph 0.03 in Rain Light Rain
2:25 PM 42.8 °F 37.0 °F 39.2 °F 87% 29.87 in 3.0 mi SSE 10.4 mph - 0.04 in Rain Light Rain
2:36 PM 42.8 °F 38.0 °F 39.2 °F 87% 29.86 in 3.0 mi SSE 8.1 mph 17.3 mph 0.06 in Rain Light Rain
2:44 PM 42.8 °F 38.6 °F 39.2 °F 87% 29.86 in 3.0 mi SE 6.9 mph - 0.07 in Rain Light Rain
2:53 PM 43.0 °F 38.8 °F 39.0 °F 86% 29.85 in 4.0 mi SSE 6.9 mph - 0.07 in Rain Light Rain
3:04 PM 42.8 °F 37.0 °F 39.2 °F 87% 29.84 in 2.5 mi SSE 10.4 mph 18.4 mph 0.02 in Rain Rain
3:14 PM 42.8 °F 37.5 °F 39.2 °F 87% 29.83 in 2.5 mi SE 9.2 mph 18.4 mph 0.04 in Rain Rain
3:17 PM 42.8 °F 38.0 °F 39.2 °F 87% 29.83 in 3.0 mi SSE 8.1 mph 18.4 mph 0.05 in Rain Rain
3:27 PM 42.8 °F 40.1 °F 39.2 °F 87% 29.83 in 2.0 mi SSW 4.6 mph - 0.07 in Rain Rain
3:38 PM 42.8 °F 38.0 °F 39.2 °F 87% 29.82 in 2.5 mi South 8.1 mph - 0.09 in Rain Rain
3:49 PM 42.8 °F 37.5 °F 39.2 °F 87% 29.82 in 1.8 mi SE 9.2 mph - 0.12 in Rain Rain
3:53 PM 43.0 °F 37.7 °F 37.9 °F 82% 29.82 in 2.0 mi SE 9.2 mph - 0.13 in Rain Rain
4:16 PM 42.8 °F 39.3 °F 39.2 °F 87% 29.79 in 2.5 mi ESE 5.8 mph - 0.03 in Rain Light Rain
4:35 PM 42.8 °F 38.6 °F 39.2 °F 87% 29.79 in 2.0 mi SE 6.9 mph - 0.06 in Rain Light Rain
4:49 PM 42.8 °F 38.6 °F 39.2 °F 87% 29.78 in 1.5 mi SE 6.9 mph - 0.07 in Rain Light Rain
4:53 PM 43.0 °F 39.5 °F 39.9 °F 89% 29.78 in 1.2 mi SSE 5.8 mph - 0.08 in Rain Light Rain
5:06 PM 44.6 °F 40.7 °F 39.2 °F 81% 29.76 in 0.8 mi SSE 6.9 mph - 0.02 in Rain Light Rain
5:53 PM 44.1 °F 40.1 °F 39.9 °F 85% 29.74 in 0.5 mi SE 6.9 mph - 0.13 in Fog , Rain Light Rain
6:30 PM 46.4 °F 42.9 °F 42.8 °F 87% 29.71 in 0.8 mi Variable 6.9 mph - 0.06 in Rain Light Rain
6:53 PM 48.0 °F - 45.0 °F 89% 29.71 in 0.8 mi South 10.4 mph 18.4 mph 0.10 in Rain Light Rain
7:06 PM 46.4 °F 39.2 °F 41.0 °F 81% 29.73 in 1.8 mi NW 18.4 mph 31.1 mph 0.02 in Rain Light Rain
7:10 PM 44.6 °F 37.2 °F 39.2 °F 81% 29.73 in 3.0 mi NW 17.3 mph 31.1 mph 0.02 in Rain Light Rain
7:17 PM 44.6 °F 38.4 °F 39.2 °F 81% 29.73 in 1.8 mi NW 12.7 mph 29.9 mph 0.02 in Rain Light Rain
7:19 PM 44.6 °F 38.1 °F 39.2 °F 81% 29.73 in 1.8 mi WNW 13.8 mph 29.9 mph 0.03 in Rain Light Rain
7:28 PM 44.6 °F 37.2 °F 39.2 °F 81% 29.74 in 3.0 mi WNW 17.3 mph 29.9 mph 0.03 in Rain Light Rain
7:43 PM 44.6 °F 38.8 °F 37.4 °F 76% 29.74 in 6.0 mi WNW 11.5 mph 20.7 mph 0.03 in Rain Light Rain
7:53 PM 44.1 °F 37.1 °F 36.0 °F 73% 29.75 in 6.0 mi WNW 15.0 mph 25.3 mph 0.03 in   Haze
8:53 PM 44.1 °F 38.1 °F 35.1 °F 71% 29.78 in 7.0 mi West 11.5 mph - N/A   Overcast
9:53 PM 43.0 °F 38.8 °F 35.1 °F 74% 29.80 in 7.0 mi West 6.9 mph - N/A   Mostly Cloudy
10:46 PM 42.8 °F 37.0 °F 35.6 °F 76% 29.82 in 7.0 mi WNW 10.4 mph 27.6 mph 0.02 in   Overcast
10:53 PM 42.1 °F 35.7 °F 35.1 °F 76% 29.82 in 7.0 mi West 11.5 mph 19.6 mph 0.02 in   Overcast
11:53 PM 42.1 °F 35.2 °F 32.0 °F 67% 29.84 in 8.0 mi West 12.7 mph 19.6 mph 0.00 in   Mostly Cloudy